FAISAT 2V

Satellite information

Favourite Embed

Satellite Type and Status

PAYLOADIN ORBIT

Key statistics

Satellite FAISAT 2V at a glance.

Uptime

10150

Days in orbit

Revolutions

≈ 13.8

Per day

Orbit

LEO

Low Earth Orbit

Inclination

82.9

Latest

Satellite identification and parameters

Extended collection of information and parameters for FAISAT 2V.

Object identification

Identified? True

Debris? False

Object name: FAISAT 2V

International designator: 1997-052B

Object number (NORAD): 24954

Object ID (CCSDS): 24954

Country: UNITED STATES OF AMERICA (US)

Current information (Y/N): Y

RCS size: MEDIUM

Orbital parameters

Period: 104.324 minutes

Inclination: 82.9212 deg

SMA: 7340.911 km

Apoapsis: 991.385 km

Periapsis: 934.167 km

RAAN: 242.4269 deg

Eccentricy: 0.0038972

Argument of periapsis: 199.018 deg

Mean anomaly: 279.9884 deg

Mean motion: 13.803137 rev/day

Mean motion (dot): 0.00000074 rev/day2

B* drag term: 0.000056149 1/REarth

Two-line elements (TLE)

Creation date: July 7, 2025, 6:34 p.m.

Reference frame: TEME

Reference center: EARTH

Epoch: July 7, 2025, 3:39 p.m. UTC

TLE line 0: 0 FAISAT 2V

TLE line 1: 1 24954U 97052B 25188.65211962 .00000074 00000-0 56149-4 0 9993

TLE line 2: 2 24954 82.9212 242.4269 0038972 199.0180 279.9884 13.80313700399471

Live tracking on map

Real-time ground track for satellite FAISAT 2V.

In-orbit conjunctions

A list of the most updated potential collisions computed for object FAISAT 2V.

Target Orbit TCA Probability of collision Miss distance Type
FENGYUN 1C DEB SSO 2025-01-04 12:35:48 0.000121285 593.0 (m) DEBRIS
FENGYUN 1C DEB SSO 2024-10-12 19:56:20 0.0001368488 249.0 (m) DEBRIS
THORAD AGENA D DEB SSO 2024-08-20 13:02:24 0.0001075428 331.0 (m) DEBRIS

Associated space launch

Navigation satellite providing location information for the Tsiklon-B navigation system

FAISAT 2V was lifted into orbit during the mission ‘Kosmos-3M | Parus 89’, on board a Kosmos-3M space rocket.

The launch took place on Sept. 23, 1997, 4:44 p.m. from 132/1 (132L).

For more information about the launch, click the button.

Launch to space Kosmos-3M | Parus 89
Kosmos-3M | Parus 89

Agency: N/A

Status: Launch Successful

Launch date: Sept. 23, 1997, 4:44 p.m. UTC

Rocket: Kosmos-3M

Launch pad: 132/1 (132L)

Location: Plesetsk Cosmodrome, Russian Federation

...

Latest news about this satellite

There are no fresh news available about this satellite. Check back as we update our databases every day.


Newsletter sign-up

Weekly statistics, charts and insights to help you stay on top of the space industry.